Weather History for Truckee-Tahoe, CA

Change the Weather History Date:

Saturday, July 20, 2013

  Actual Average Record
Temperature  
Mean Temperature 70 °F -  
Max Temperature 93 °F 82 °F 93 °F (1979)
Min Temperature 46 °F 41 °F 28 °F (1983)
Cooling Degree Days 4    
Growing Degree Days 20 (Base 50)    
Moisture  
Dew Point 42 °F    
Average Humidity 49    
Maximum Humidity 76    
Minimum Humidity 11    
Precipitation  
Precipitation 0.00 in - - ()
Sea Level Pressure  
Sea Level Pressure 30.15 in    
Wind  
Wind Speed 2 mph (SW)    
Max Wind Speed 14 mph    
Max Gust Speed 33 mph    
Visibility 10 miles    
Events      
Averages and records for this station are not official NWS values.
T = Trace of Precipitation, MM = Missing Value Source: NWS Daily Summary

Daily Weather History Graph

Daily Weather History Graph

Search for Another Location

Airport:

Trip Planner

Search our weather history database for the weather conditions in past years. The results will help you decide how hot, cold, wet, or windy it might be!

Date:

Astronomy

Jul. 20, 2013 Rise Set
Actual Time 5:50 AM PDT 8:22 PM PDT
Civil Twilight 5:19 AM PDT 8:53 PM PDT
Nautical Twilight 4:41 AM PDT 9:32 PM PDT
Astronomical Twilight 3:57 AM PDT 10:14 PM PDT
Moon 6:31 PM PDT (7/20) 3:35 AM PDT (7/20)
Length of Visible Light 15h 34m
Length of Day
14h 32m
Waxing Gibbous, 94% of the Moon is Illuminated
Jul 20
Waxing Gibbous
Jul 22
Full
Jul 29
Last Quarter
Aug 6
New
Aug 14
First Quarter

Hourly Weather History & Observations

Time (PDT) Temp. Windchill Dew Point Humidity Pressure Visibility Wind Dir Wind Speed Gust Speed Precip Events Conditions
12:15 AM 55.4 °F - 41.0 °F 58% 30.21 in 10.0 mi Calm Calm - N/A   Clear
12:35 AM 51.8 °F - 39.2 °F 62% 30.21 in 10.0 mi South 4.6 mph - N/A   Clear
12:55 AM 55.4 °F - 41.0 °F 58% 30.20 in 10.0 mi Calm Calm - N/A   Clear
1:15 AM 55.4 °F - 39.2 °F 54% 30.20 in 10.0 mi Calm Calm - N/A   Clear
1:35 AM 55.4 °F - 39.2 °F 54% 30.21 in 10.0 mi Calm Calm - N/A   Clear
1:55 AM 50.0 °F - 39.2 °F 66% 30.20 in 10.0 mi SSE 5.8 mph - N/A   Clear
2:15 AM 50.0 °F - 39.2 °F 66% 30.20 in 10.0 mi Calm Calm - N/A   Clear
2:35 AM 53.6 °F - 39.2 °F 58% 30.20 in 10.0 mi Calm Calm - N/A   Clear
2:55 AM 51.8 °F - 41.0 °F 67% 30.20 in 10.0 mi Calm Calm - N/A   Clear
3:15 AM 48.2 °F - 41.0 °F 76% 30.20 in 10.0 mi Calm Calm - N/A   Clear
3:35 AM 48.2 °F - 39.2 °F 71% 30.20 in 10.0 mi Calm Calm - N/A   Clear
3:55 AM 48.2 °F - 39.2 °F 71% 30.20 in 10.0 mi South 3.5 mph - N/A   Clear
4:15 AM 50.0 °F - 39.2 °F 66% 30.19 in 10.0 mi Calm Calm - N/A   Clear
4:35 AM 46.4 °F 45.2 °F 39.2 °F 76% 30.19 in 10.0 mi South 3.5 mph - N/A   Clear
4:55 AM 48.2 °F - 39.2 °F 71% 30.19 in 10.0 mi Calm Calm - N/A   Clear
5:15 AM 46.4 °F - 39.2 °F 76% 30.19 in 10.0 mi Calm Calm - N/A   Clear
5:35 AM 46.4 °F - 39.2 °F 76% 30.19 in 10.0 mi Calm Calm - N/A   Clear
5:55 AM 48.2 °F - 41.0 °F 76% 30.19 in 10.0 mi South 3.5 mph - N/A   Clear
6:15 AM 46.4 °F - 39.2 °F 76% 30.19 in 10.0 mi Calm Calm - N/A   Clear
6:35 AM 46.4 °F - 39.2 °F 76% 30.20 in 10.0 mi Calm Calm - N/A   Clear
6:45 AM 48.2 °F - 39.2 °F 71% 30.20 in 10.0 mi Calm Calm - N/A   Clear
7:55 AM 57.2 °F - 39.2 °F 51% 30.20 in 10.0 mi Calm Calm - N/A   Clear
8:55 AM 66.2 °F - 41.0 °F 40% 30.20 in 10.0 mi Calm Calm - N/A   Clear
10:55 AM 82.4 °F - 41.0 °F 23% 30.17 in 10.0 mi NNE 3.5 mph - N/A   Clear
11:55 AM 87.8 °F - 39.2 °F 18% 30.15 in 10.0 mi Calm Calm - N/A   Partly Cloudy
12:50 PM 91.4 °F - 35.6 °F 14% 30.14 in 10.0 mi Calm Calm - N/A   Partly Cloudy
1:50 PM 91.4 °F - 32.0 °F 12% 30.12 in 10.0 mi West 3.5 mph - N/A   Partly Cloudy
2:45 PM 93.2 °F - 32.0 °F 11% 30.11 in 10.0 mi SSW 6.9 mph 18.4 mph N/A   Scattered Clouds
3:50 PM 84.2 °F - 46.4 °F 27% 30.00 in 10.0 mi ESE 13.8 mph 33.4 mph N/A   Scattered Clouds
4:50 PM 91.4 °F - 44.6 °F 20% 30.09 in 10.0 mi NW 10.4 mph - N/A   Scattered Clouds
5:45 PM 87.8 °F - 39.2 °F 18% 30.10 in 10.0 mi NE 6.9 mph - N/A   Scattered Clouds
5:55 PM 87.8 °F - 39.2 °F 18% 30.10 in 10.0 mi NNE 13.8 mph 17.3 mph N/A   Clear
6:15 PM 87.8 °F - 39.2 °F 18% 30.09 in 10.0 mi NE 5.8 mph - N/A   Clear
6:35 PM 87.8 °F - 37.4 °F 17% 30.09 in 10.0 mi Calm Calm - N/A   Clear
6:55 PM 87.8 °F - 37.4 °F 17% 30.09 in 10.0 mi NNW 3.5 mph - N/A   Clear
7:15 PM 86.0 °F - 48.2 °F 27% 30.10 in 10.0 mi West 10.4 mph - N/A   Clear
7:35 PM 84.2 °F - 48.2 °F 29% 30.10 in 10.0 mi West 10.4 mph - N/A   Clear
7:55 PM 82.4 °F - 50.0 °F 32% 30.10 in 10.0 mi West 9.2 mph - N/A   Clear
8:15 PM 80.6 °F - 50.0 °F 34% 30.10 in 10.0 mi WSW 5.8 mph - N/A   Clear
8:35 PM 77.0 °F - 48.2 °F 36% 30.11 in 10.0 mi NNW 4.6 mph - N/A   Clear
8:55 PM 73.4 °F - 50.0 °F 44% 30.12 in 10.0 mi NNE 5.8 mph - N/A   Clear
9:15 PM 71.6 °F - 51.8 °F 50% 30.12 in 10.0 mi West 4.6 mph - N/A   Clear
9:35 PM 66.2 °F - 50.0 °F 56% 30.13 in 10.0 mi South 4.6 mph - N/A   Clear
9:55 PM 68.0 °F - 50.0 °F 52% 30.14 in 10.0 mi SE 6.9 mph - N/A   Clear
10:15 PM 64.4 °F - 50.0 °F 59% 30.14 in 10.0 mi Calm Calm - N/A   Clear
10:35 PM 64.4 °F - 50.0 °F 59% 30.14 in 10.0 mi South 4.6 mph - N/A   Clear
10:55 PM 60.8 °F - 48.2 °F 63% 30.14 in 10.0 mi Calm Calm - N/A   Clear
11:15 PM 64.4 °F - 48.2 °F 56% 30.14 in 10.0 mi SE 6.9 mph - N/A   Clear
11:35 PM 59.0 °F - 48.2 °F 67% 30.14 in 10.0 mi WSW 3.5 mph - N/A   Clear
11:55 PM 60.8 °F - 48.2 °F 63% 30.14 in 10.0 mi Calm Calm - N/A   Clear